CW2969 Weather Reports


time (UTC)temp
F
wind
direction
speed
knots
gust
knots
rain 1hr
in
rain 24hr
in
rain mn
in
humidity
%
barometer
mb
20260902204520 98 178 1.7 3.5 0.00 0.00 0.00 45 1010.5
20260902204020 98 209 0.9 3.5 0.00 0.00 0.00 46 1010.6
20260902203520 98 246 1.7 3.5 0.00 0.00 0.00 46 1010.7
20260902203020 98 60 0.9 5.2 0.00 0.00 0.00 46 1010.7
20260902202520 98 252 2.6 6.1 0.00 0.00 0.00 46 1010.8
20260902202020 97 309 1.7 6.1 0.00 0.00 0.00 46 1010.7
20260902201519 97 145 1.7 6.1 0.00 0.00 0.00 47 1010.8
20260902201019 96 113 1.7 1.7 0.00 0.00 0.00 47 1010.8
20260902200520 96 108 0.0 2.6 0.00 0.00 0.00 46 1010.9
20260902200019 96 92 2.6 2.6 0.00 0.00 0.00 46 1011.0
20260902194519 96 107 0.9 3.5 0.00 0.00 0.00 47 1011.2
20260902194019 96 107 1.7 3.5 0.00 0.00 0.00 48 1011.3
20260902193019 96 90 0.9 5.2 0.00 0.00 0.00 49 1011.4
20260902192519 96 286 1.7 5.2 0.00 0.00 0.00 48 1011.6
20260902192019 96 145 0.9 2.6 0.00 0.00 0.00 48 1011.6
20260902191519 96 187 1.7 2.6 0.00 0.00 0.00 48 1011.7
20260902190018 97 131 2.6 3.5 0.00 0.00 0.00 47 1012.0
20260902185518 97 218 0.9 3.5 0.00 0.00 0.00 47 1012.1
20260902185019 97 298 1.7 5.2 0.00 0.00 0.00 46 1012.1
20260902184519 97 124 2.6 5.2 0.00 0.00 0.00 46 1012.2
20260902183518 97 269 0.9 3.5 0.00 0.00 0.00 46 1012.4
20260902183018 97 321 2.6 6.1 0.00 0.00 0.00 47 1012.4
20260902182519 97 289 2.6 7.0 0.00 0.00 0.00 47 1012.5
20260902182019 97 319 1.7 7.0 0.00 0.00 0.00 47 1012.6
20260902181518 97 347 3.5 3.5 0.00 0.00 0.00 48 1012.8
20260902181018 96 326 3.5 5.2 0.00 0.00 0.00 48 1012.8
20260902180518 96 105 1.7 7.8 0.00 0.00 0.00 49 1012.9
20260902175518 97 29 2.6 2.6 0.00 0.00 0.00 49 1013.2
20260902175018 96 104 2.6 2.6 0.00 0.00 0.00 49 1013.3
20260902174518 96 104 0.0 2.6 0.00 0.00 0.00 50 1013.4
20260902173518 96 148 2.6 2.6 0.00 0.00 0.00 51 1013.5
20260902173017 95 113 0.9 4.3 0.00 0.00 0.00 51 1013.6
20260902172517 95 316 2.6 4.3 0.00 0.00 0.00 51 1013.7
20260902172018 95 211 4.3 4.3 0.00 0.00 0.00 52 1013.8
20260902171517 95 311 4.3 6.1 0.00 0.00 0.00 52 1013.8
20260902171018 95 281 3.5 6.1 0.00 0.00 0.00 52 1014.0
20260902170518 95 263 0.9 6.1 0.00 0.00 0.00 53 1014.0
20260902170017 95 247 1.7 6.1 0.00 0.00 0.00 53 1014.0
20260902165517 94 184 2.6 7.8 0.00 0.00 0.00 54 1014.1
20260902165017 94 200 2.6 7.8 0.00 0.00 0.00 55 1014.2
20260902164517 93 147 0.0 5.2 0.00 0.00 0.00 56 1014.2
20260902164017 93 259 0.9 5.2 0.00 0.00 0.00 56 1014.2
20260902163517 93 320 3.5 5.2 0.00 0.00 0.00 57 1014.3
20260902163017 92 107 0.9 3.5 0.00 0.00 0.00 57 1014.3
20260902162517 92 297 2.6 3.5 0.00 0.00 0.00 58 1014.3
20260902162017 92 279 2.6 3.5 0.00 0.00 0.00 58 1014.3
20260902161517 92 272 0.0 3.5 0.00 0.00 0.00 59 1014.4
20260902161017 91 157 1.7 6.1 0.00 0.00 0.00 60 1014.3
20260902160517 91 260 2.6 6.1 0.00 0.00 0.00 61 1014.3
20260902160017 91 139 0.9 3.5 0.00 0.00 0.00 62 1014.2
20260902155517 91 240 1.7 4.3 0.00 0.00 0.00 62 1014.4
20260902155017 90 163 4.3 4.3 0.00 0.00 0.00 63 1014.4
20260902154517 90 337 1.7 3.5 0.00 0.00 0.00 64 1014.4
20260902154017 89 139 3.5 3.5 0.00 0.00 0.00 65 1014.3
20260902153517 89 140 1.7 6.1 0.00 0.00 0.00 66 1014.3
20260902153017 88 296 1.7 6.1 0.00 0.00 0.00 67 1014.4
20260902152517 88 271 1.7 2.6 0.00 0.00 0.00 67 1014.4
20260902152016 87 271 0.9 2.6 0.00 0.00 0.00 68 1014.4
20260902151517 87 328 2.6 3.5 0.00 0.00 0.00 69 1014.3
20260902151016 87 314 2.6 7.0 0.00 0.00 0.00 69 1014.3
20260902150516 86 236 3.5 7.0 0.00 0.00 0.00 70 1014.3
20260902150016 86 249 3.5 3.5 0.00 0.00 0.00 70 1014.3
20260902145516 86 211 0.9 4.3 0.00 0.00 0.00 71 1014.2
20260902145016 85 251 2.6 4.3 0.00 0.00 0.00 72 1014.3
20260902144016 85 121 1.7 6.1 0.00 0.00 0.00 73 1014.5
20260902143516 85 286 2.6 5.2 0.00 0.00 0.00 73 1014.4
20260902142016 84 281 1.7 6.1 0.00 0.00 0.00 74 1014.6
20260902141516 84 226 1.7 3.5 0.00 0.00 0.00 75 1014.5
20260902141016 84 294 3.5 3.5 0.00 0.00 0.00 75 1014.6
20260902140516 83 166 3.5 3.5 0.00 0.00 0.00 75 1014.6
20260902140016 83 254 1.7 2.6 0.00 0.00 0.00 76 1014.5
20260902135516 83 157 2.6 2.6 0.00 0.00 0.00 76 1014.5
20260902135015 83 206 0.9 3.5 0.00 0.00 0.00 76 1014.4
20260902134516 82 252 1.7 3.5 0.00 0.00 0.00 76 1014.5
20260902133015 81 325 1.7 4.3 0.00 0.00 0.00 77 1014.4
20260902132515 81 235 0.0 4.3 0.00 0.00 0.00 77 1014.3
20260902132015 81 217 1.7 5.2 0.00 0.00 0.00 77 1014.3
20260902131515 80 178 1.7 5.2 0.00 0.00 0.00 78 1014.1
20260902131015 80 298 0.0 2.6 0.00 0.00 0.00 78 1014.1
20260902130015 79 224 0.0 0.0 0.00 0.00 0.00 78 1014.0
20260902125515 79 263 0.0 0.9 0.00 0.00 0.00 78 1014.0
20260902125015 79 261 0.0 0.9 0.00 0.00 0.00 78 1014.0
20260902124015 78 326 0.0 0.0 0.00 0.00 0.00 78 1013.8
20260902123515 78 326 0.0 0.0 0.00 0.00 0.00 78 1013.8
20260902123014 78 198 0.0 0.0 0.00 0.00 0.00 78 1013.7
20260902122514 78 198 0.0 0.9 0.00 0.00 0.00 78 1013.6
20260902122014 78 198 0.0 0.9 0.00 0.00 0.00 78 1013.6
20260902121514 78 208 0.0 0.9 0.00 0.00 0.00 78 1013.6
20260902120514 78 209 0.9 1.7 0.00 0.00 0.00 79 1013.6
20260902120014 78 202 0.0 0.9 0.00 0.00 0.00 79 1013.6
20260902115514 78 201 0.0 0.9 0.00 0.00 0.00 79 1013.6
20260902115014 78 202 0.0 0.9 0.00 0.00 0.00 79 1013.6
20260902114514 78 171 0.0 0.0 0.00 0.00 0.00 79 1013.6
20260902114014 77 171 0.0 0.0 0.00 0.00 0.00 79 1013.6
20260902113514 77 190 0.0 0.0 0.00 0.00 0.00 78 1013.5
20260902113014 77 106 0.0 0.0 0.00 0.00 0.00 78 1013.5
20260902112514 77 106 0.0 0.0 0.00 0.00 0.00 78 1013.5
20260902112014 77 106 0.0 0.0 0.00 0.00 0.00 78 1013.5
20260902110014 78 106 0.0 0.0 0.00 0.00 0.00 77 1013.5
20260902105013 78 106 0.0 0.0 0.00 0.00 0.00 77 1013.5
20260902104513 78 106 0.0 0.0 0.00 0.00 0.00 77 1013.5
20260902103513 78 106 0.0 0.0 0.00 0.00 0.00 77 1013.6
20260902102013 78 106 0.0 0.0 0.00 0.00 0.00 77 1013.5
20260902101513 78 106 0.0 0.0 0.00 0.00 0.00 77 1013.5
20260902101013 79 106 0.0 0.0 0.00 0.00 0.00 76 1013.6
20260902100513 79 106 0.0 0.0 0.00 0.00 0.00 76 1013.5
20260902100013 79 106 0.0 0.0 0.00 0.00 0.00 76 1013.3
20260902095013 79 106 0.0 0.0 0.00 0.00 0.00 76 1013.4
20260902094513 79 106 0.0 0.0 0.00 0.00 0.00 76 1013.4
20260902093513 79 106 0.0 0.0 0.00 0.00 0.00 75 1013.5
20260902093012 79 106 0.0 0.0 0.00 0.00 0.00 75 1013.4
20260902092512 80 106 0.0 0.0 0.00 0.00 0.00 75 1013.5
20260902090512 80 106 0.0 0.0 0.00 0.00 0.00 74 1013.6
20260902085012 80 106 0.0 0.0 0.00 0.00 0.00 74 1013.6
20260902084512 81 106 0.0 0.0 0.00 0.00 0.00 73 1013.7
20260902084012 81 106 0.0 0.0 0.00 0.00 0.00 73 1013.6
20260902083512 81 106 0.0 0.0 0.00 0.00 0.00 73 1013.6
20260902083012 81 106 0.0 0.0 0.00 0.00 0.00 73 1013.6
20260902082512 81 106 0.0 0.0 0.00 0.00 0.00 73 1013.7
20260902082011 81 106 0.0 0.9 0.00 0.00 0.00 73 1013.8
20260902081512 81 106 0.0 0.9 0.00 0.00 0.00 72 1013.8
20260902081012 81 163 0.0 0.0 0.00 0.00 0.00 71 1013.7
20260902080512 81 163 0.0 0.0 0.00 0.00 0.00 72 1013.7
20260902080011 81 163 0.0 0.9 0.00 0.00 0.00 72 1013.7
20260902075512 82 163 0.0 0.9 0.00 0.00 0.00 72 1013.7
20260902075011 82 163 0.0 0.0 0.00 0.00 0.00 71 1013.6
20260902074511 82 163 0.0 0.0 0.00 0.00 0.00 71 1013.6
20260902074011 82 163 0.0 0.0 0.00 0.00 0.00 71 1013.6
20260902073011 82 163 0.0 0.0 0.00 0.00 0.00 70 1013.8
20260902072511 83 163 0.0 0.0 0.00 0.00 0.00 70 1013.8
20260902072011 83 98 0.0 0.0 0.00 0.00 0.00 70 1013.8
20260902071511 83 98 0.0 3.5 0.00 0.00 0.00 70 1013.9
20260902071011 83 98 0.0 3.5 0.00 0.00 0.00 70 1013.8
20260902070511 83 146 0.0 0.0 0.00 0.00 0.00 69 1013.8
20260902070011 83 146 0.0 0.0 0.00 0.00 0.00 69 1013.8
20260902065511 83 146 0.0 0.0 0.00 0.00 0.00 69 1013.8
20260902065011 83 146 0.0 1.7 0.00 0.00 0.00 69 1013.9
20260902064511 83 160 0.0 1.7 0.00 0.00 0.00 69 1013.8
20260902064011 83 145 1.7 1.7 0.00 0.00 0.00 69 1013.8
20260902063510 84 145 0.0 0.9 0.00 0.00 0.00 68 1013.8
20260902063011 84 126 0.0 0.0 0.00 0.00 0.00 68 1013.8
20260902062511 84 126 0.0 2.6 0.00 0.00 0.00 68 1013.8
20260902062010 84 123 0.0 2.6 0.00 0.00 0.00 68 1013.8
20260902060510 84 250 0.9 2.6 0.00 0.00 0.00 67 1013.8
20260902060010 84 200 2.6 2.6 0.00 0.00 0.00 67 1013.7
20260902055510 85 222 0.0 0.9 0.00 0.00 0.00 67 1013.8
20260902054510 85 111 0.0 0.9 0.00 0.00 0.00 66 1013.7
20260902054010 85 219 0.9 1.7 0.00 0.00 0.00 66 1013.7
20260902053510 85 209 0.9 1.7 0.00 0.00 0.00 66 1013.6
20260902053010 85 214 1.7 1.7 0.00 0.00 0.00 66 1013.7
20260902051510 86 155 0.0 2.6 0.00 0.00 0.00 65 1013.7
20260902051010 86 214 1.7 2.6 0.00 0.00 0.00 65 1013.6
20260902050010 86 167 0.9 3.5 0.00 0.00 0.00 64 1013.6
20260902045509 86 164 0.9 3.5 0.00 0.00 0.00 64 1013.7
20260902045009 86 217 0.0 4.3 0.00 0.00 0.00 63 1013.6
20260902044509 87 146 0.9 4.3 0.00 0.00 0.00 63 1013.6
20260902044010 87 197 1.7 2.6 0.00 0.00 0.00 62 1013.7
20260902043009 87 147 1.7 2.6 0.00 0.00 0.00 62 1013.7
20260902042509 87 261 0.0 1.7 0.00 0.00 0.00 61 1013.8
20260902042009 87 127 0.9 4.3 0.00 0.00 0.00 60 1013.7
20260902041509 88 164 3.5 4.3 0.00 0.00 0.00 60 1013.8
20260902041009 88 198 2.6 4.3 0.00 0.00 0.00 60 1013.7
20260902040509 88 140 1.7 7.0 0.00 0.00 0.00 59 1013.7
20260902040009 88 245 2.6 7.0 0.00 0.00 0.00 59 1013.5
20260902035509 89 112 5.2 8.7 0.00 0.00 0.00 58 1013.4
20260902035009 89 194 1.7 8.7 0.00 0.00 0.00 58 1013.4
20260902034509 89 127 0.9 6.1 0.00 0.00 0.00 57 1013.3
20260902034009 89 126 0.9 2.6 0.00 0.00 0.00 57 1013.3
20260902033508 89 150 0.9 5.2 0.00 0.00 0.00 56 1013.2
20260902033008 89 125 0.9 7.0 0.00 0.00 0.00 56 1013.2
20260902032509 90 132 1.7 7.0 0.00 0.00 0.00 56 1013.1
20260902032008 90 130 1.7 2.6 0.00 0.00 0.00 56 1013.1
20260902031508 90 143 0.9 4.3 0.00 0.00 0.00 55 1013.1
20260902031008 90 159 1.7 4.3 0.00 0.00 0.00 55 1012.9
20260902030508 90 173 0.9 3.5 0.00 0.00 0.00 55 1012.9
20260902030008 90 106 1.7 3.5 0.00 0.00 0.00 54 1012.8
20260902024508 90 128 2.6 6.1 0.00 0.00 0.00 54 1012.4
20260902024008 91 113 2.6 6.1 0.00 0.00 0.00 53 1012.4
20260902023508 91 164 1.7 3.5 0.00 0.00 0.00 53 1012.3
20260902022507 91 103 0.9 2.6 0.00 0.00 0.00 52 1012.1
20260902022007 91 137 2.6 2.6 0.00 0.00 0.00 52 1012.0
20260902021507 91 147 1.7 2.6 0.00 0.00 0.00 51 1011.9
20260902020507 92 164 0.0 2.6 0.00 0.00 0.00 50 1011.8
20260902020007 92 111 0.0 2.6 0.00 0.00 0.00 50 1011.8
20260902015507 92 211 1.7 2.6 0.00 0.00 0.00 50 1011.6
20260902015007 92 232 2.6 2.6 0.00 0.00 0.00 49 1011.4
20260902014507 92 121 0.0 2.6 0.00 0.00 0.00 49 1011.5
20260902014007 93 135 2.6 2.6 0.00 0.00 0.00 48 1011.5
20260902013507 93 136 1.7 3.5 0.00 0.00 0.00 48 1011.5
20260902013007 93 140 2.6 3.5 0.00 0.00 0.00 48 1011.4
20260902012506 93 146 0.9 5.2 0.00 0.00 0.00 47 1011.4
20260902012006 94 113 2.6 8.7 0.00 0.00 0.00 47 1011.4
20260902011507 94 140 1.7 8.7 0.00 0.00 0.00 47 1011.4
20260902011007 94 141 3.5 6.1 0.00 0.00 0.00 46 1011.3
20260902010507 95 100 2.6 5.2 0.00 0.00 0.00 45 1011.2
20260902010006 95 153 2.6 5.2 0.00 0.00 0.00 45 1011.2
20260902005507 96 119 0.9 6.1 0.00 0.00 0.00 45 1011.1
20260902005006 96 131 1.7 7.8 0.00 0.00 0.00 44 1011.1
20260902004506 96 99 2.6 7.8 0.00 0.00 0.00 43 1011.1
20260902004006 96 183 3.5 6.1 0.00 0.00 0.00 43 1011.1
20260902003006 96 112 1.7 5.2 0.00 0.00 0.00 43 1011.1
20260902002506 96 108 5.2 5.2 0.00 0.00 0.00 43 1011.2
20260902002006 96 114 0.9 1.7 0.00 0.00 0.00 42 1011.2
20260902001506 96 119 0.9 6.1 0.00 0.00 0.00 42 1011.2
20260902001006 97 93 1.7 6.1 0.00 0.00 0.00 42 1011.3
20260902000506 97 103 2.6 5.2 0.00 0.00 0.00 42 1011.2
20260902000005 97 100 5.2 7.0 0.00 0.00 0.00 42 1011.3
20260901235506 97 91 2.6 7.0 0.00 0.00 0.00 42 1011.2
20260901234505 98 109 2.6 3.5 0.00 0.00 0.00 41 1011.2
20260901233505 98 83 4.3 9.6 0.00 0.00 0.00 40 1011.2
20260901233005 99 96 5.2 5.2 0.00 0.00 0.00 40 1011.3
20260901232535 99 98 1.7 4.3 0.00 0.00 0.00 40 1011.2
20260901232035 99 124 3.5 4.3 0.00 0.00 0.00 40 1011.1
20260901231535 99 49 0.9 6.1 0.00 0.00 0.00 39 1011.1
20260901231035 100 101 2.6 6.1 0.00 0.00 0.00 39 1011.1
20260901230535 100 105 0.9 4.3 0.00 0.00 0.00 39 1011.1
20260901225535 100 116 1.7 7.8 0.00 0.00 0.00 39 1011.1
20260901225034 99 119 0.9 6.1 0.00 0.00 0.00 40 1011.0
20260901224535 99 93 0.0 6.1 0.00 0.00 0.00 40 1011.0
20260901224034 99 100 0.9 3.5 0.00 0.00 0.00 40 1011.0
20260901223534 99 82 0.9 3.5 0.00 0.00 0.00 40 1011.1
20260901223034 99 136 0.0 2.6 0.00 0.00 0.00 40 1011.1
20260901222534 99 355 0.9 2.6 0.00 0.00 0.00 40 1011.1
20260901222034 99 86 0.0 6.1 0.00 0.00 0.00 40 1011.1
20260901221534 99 88 1.7 6.1 0.00 0.00 0.00 40 1011.2
20260901221034 100 131 2.6 6.1 0.00 0.00 0.00 39 1011.2
20260901220534 101 81 1.7 6.1 0.00 0.00 0.00 38 1011.1
20260901215534 101 129 3.5 6.1 0.00 0.00 0.00 38 1011.2
20260901215034 101 150 0.0 1.7 0.00 0.00 0.00 39 1011.1
20260901214534 101 208 0.9 5.2 0.00 0.00 0.00 39 1011.1
20260901214034 101 104 5.2 5.2 0.00 0.00 0.00 39 1011.1
20260901213533 100 111 1.7 2.6 0.00 0.00 0.00 40 1011.2
20260901213034 100 96 0.9 2.6 0.00 0.00 0.00 40 1011.2
20260901211533 100 121 4.3 7.8 0.00 0.00 0.00 39 1011.4
20260901211033 100 224 1.7 2.6 0.00 0.00 0.00 39 1011.4
20260901205533 101 116 3.5 5.2 0.00 0.00 0.00 37 1011.7
20260901205033 101 109 3.5 7.0 0.00 0.00 0.00 38 1011.8